Welcome to Northern Hawkes Bay. New Zealand.
PWS Header
      nz Flag



Hit Counter


W3C Valid W3C Valid logo


    Wairoa

Select any of the Stations below to visit their websites.










Historic Data from Weather Underground
Select the location of interest below. Wairoa is the default. Please have patience, this Data is slow to load in.
Northern Hawkes Bay Historical Data
Daily Summary for January 1, 2017 Units:  English    Metric   Both
« Previous Day
Next Day »
Daily Weekly Monthly Yearly Custom
  High: Low: Average:
Temperature: 77.9 °F 64.6 °F 70.3 °F
Dew Point: 59.4 °F 49.8 °F 54.3 °F
Humidity: 66% 44% 58%
Wind Speed: 18.3mph 0mph 8mph
Wind Gust: 26.6mph - -
Wind- - WNW
Pressure: 29.9 in 29.7 in -
Precipitation: 0 in    
Historical Graphs
 
 
Tabular Data for January 1, 2017
Time Temperature Dew Point Pressure Wind Wind Speed Wind Gust Humidity Rainfall Rate (Hourly) solar
00:01 66.2 °F 53.8 °F 29.9 in North 6.9 mph 11.4 mph 64% 0 in 0 W/m2
00:06 66 °F 54 °F 29.9 in North 6 mph 11.4 mph 65% 0 in 0 W/m2
00:11 65.8 °F 53.8 °F 29.9 in North 6.9 mph 10.7 mph 65% 0 in 0 W/m2
00:16 65.8 °F 53.8 °F 29.9 in North 3.8 mph 10.7 mph 65% 0 in 0 W/m2
00:21 65.7 °F 53.6 °F 29.9 in North 4.5 mph 10.7 mph 65% 0 in 0 W/m2
00:26 65.7 °F 53.6 °F 29.9 in North 3.8 mph 10.7 mph 65% 0 in 0 W/m2
00:31 65.3 °F 53.2 °F 29.9 in North 4.5 mph 10.7 mph 65% 0 in 0 W/m2
00:36 65.5 °F 53.4 °F 29.9 in North 5.4 mph 9.8 mph 65% 0 in 0 W/m2
00:41 65.5 °F 53.4 °F 29.9 in North 6 mph 9.8 mph 65% 0 in 0 W/m2
00:46 65.5 °F 53.4 °F 29.9 in North 8.3 mph 10.7 mph 65% 0 in 0 W/m2
00:51 65.5 °F 53.4 °F 29.9 in North 6.9 mph 10.7 mph 65% 0 in 0 W/m2
00:56 65.5 °F 53.4 °F 29.9 in NNW 6.9 mph 10.7 mph 65% 0 in 0 W/m2
01:01 65.5 °F 53.4 °F 29.9 in NNW 6.9 mph 10.7 mph 65% 0 in 0 W/m2
01:06 65.5 °F 53.4 °F 29.9 in NNW 6 mph 9.8 mph 65% 0 in 0 W/m2
01:11 65.5 °F 53.4 °F 29.9 in North 5.4 mph 9.8 mph 65% 0 in 0 W/m2
01:16 65.3 °F 53.2 °F 29.9 in North 4.5 mph 9.8 mph 65% 0 in 0 W/m2
01:21 65.3 °F 53.2 °F 29.9 in NNW 5.4 mph 11.4 mph 65% 0 in 0 W/m2
01:26 65.3 °F 53.2 °F 29.9 in North 4.5 mph 11.4 mph 65% 0 in 0 W/m2
01:31 65.3 °F 53.2 °F 29.9 in North 4.5 mph 10.7 mph 65% 0 in 0 W/m2
01:36 65.3 °F 53.2 °F 29.9 in NNW 6 mph 10.7 mph 65% 0 in 0 W/m2
01:41 65.3 °F 53.2 °F 29.9 in NW 3.8 mph 10.7 mph 65% 0 in 0 W/m2
01:46 65.5 °F 53.4 °F 29.9 in NNW 7.6 mph 10.7 mph 65% 0 in 0 W/m2
01:51 65.5 °F 53.4 °F 29.9 in North 5.4 mph 13 mph 65% 0 in 0 W/m2
01:56 65.5 °F 53.4 °F 29.9 in North 6.9 mph 13 mph 65% 0 in 0 W/m2
02:01 65.5 °F 53.1 °F 29.9 in North 5.4 mph 11.4 mph 64% 0 in 0 W/m2
02:06 65.5 °F 53.4 °F 29.9 in North 5.4 mph 11.4 mph 65% 0 in 0 W/m2
02:11 65.3 °F 53.2 °F 29.9 in North 6 mph 10.7 mph 65% 0 in 0 W/m2
02:16 65.3 °F 52.9 °F 29.9 in North 5.4 mph 13 mph 64% 0 in 0 W/m2
02:21 65.3 °F 52.9 °F 29.9 in North 6 mph 13 mph 64% 0 in 0 W/m2
02:26 65.5 °F 53.1 °F 29.9 in North 7.6 mph 11.4 mph 64% 0 in 0 W/m2
02:31 65.5 °F 53.1 °F 29.9 in North 6.9 mph 13.6 mph 64% 0 in 0 W/m2
02:36 65.5 °F 53.1 °F 29.9 in North 6.9 mph 13.6 mph 64% 0 in 0 W/m2
02:41 65.8 °F 52.9 °F 29.8 in North 4.5 mph 12.1 mph 63% 0 in 0 W/m2
02:46 65.8 °F 52.9 °F 29.8 in North 8.3 mph 13 mph 63% 0 in 0 W/m2
02:51 65.8 °F 52.9 °F 29.8 in North 11.4 mph 15.2 mph 63% 0 in 0 W/m2
02:56 65.7 °F 52.7 °F 29.8 in North 8.3 mph 15.2 mph 63% 0 in 0 W/m2
03:01 65.8 °F 52.9 °F 29.8 in North 6.9 mph 15.9 mph 63% 0 in 0 W/m2
03:06 65.7 °F 52.7 °F 29.8 in North 6 mph 15.9 mph 63% 0 in 0 W/m2
03:11 65.7 °F 52.7 °F 29.8 in North 5.4 mph 15.9 mph 63% 0 in 0 W/m2
03:16 65.7 °F 52.7 °F 29.8 in North 7.6 mph 13.6 mph 63% 0 in 0 W/m2
03:21 65.7 °F 52.7 °F 29.8 in North 9.2 mph 15.9 mph 63% 0 in 0 W/m2
03:26 65.8 °F 52.5 °F 29.8 in North 4.5 mph 15.9 mph 62% 0 in 0 W/m2
03:31 65.7 °F 52.3 °F 29.8 in North 8.3 mph 13.6 mph 62% 0 in 0 W/m2
03:36 65.8 °F 52.5 °F 29.8 in North 11.4 mph 19.7 mph 62% 0 in 0 W/m2
03:41 65.8 °F 52.5 °F 29.8 in North 8.3 mph 19.7 mph 62% 0 in 0 W/m2
03:46 65.8 °F 52 °F 29.8 in North 6.9 mph 15.9 mph 61% 0 in 0 W/m2
03:51 65.7 °F 52.3 °F 29.8 in NNW 11.4 mph 15.9 mph 62% 0 in 0 W/m2
03:56 65.7 °F 52.3 °F 29.8 in North 8.3 mph 15.9 mph 62% 0 in 0 W/m2
04:01 65.8 °F 52.5 °F 29.8 in NNE 7.6 mph 15.9 mph 62% 0 in 0 W/m2
04:06 66 °F 52.5 °F 29.8 in NNE 7.6 mph 15.2 mph 62% 0 in 0 W/m2
04:11 65.8 °F 52.5 °F 29.8 in NNE 6.9 mph 15.2 mph 62% 0 in 0 W/m2
04:16 65.8 °F 52.5 °F 29.8 in NNE 5.4 mph 13.6 mph 62% 0 in 0 W/m2
04:21 65.8 °F 52.9 °F 29.8 in North 8.3 mph 13 mph 63% 0 in 0 W/m2
04:26 65.8 °F 52.9 °F 29.8 in North 8.3 mph 13 mph 63% 0 in 0 W/m2
04:31 66 °F 53.1 °F 29.8 in North 3.8 mph 13 mph 63% 0 in 0 W/m2
04:36 65.8 °F 52.9 °F 29.8 in North 7.6 mph 13 mph 63% 0 in 0 W/m2
04:41 66 °F 52.5 °F 29.8 in NNW 6.9 mph 12.1 mph 62% 0 in 0 W/m2
04:46 66 °F 52.5 °F 29.8 in NNW 3.8 mph 12.1 mph 62% 0 in 0 W/m2
04:51 65.8 °F 52.9 °F 29.8 in NNW 6.9 mph 11.4 mph 63% 0 in 0 W/m2
04:56 66 °F 53.1 °F 29.8 in NNW 6 mph 12.1 mph 63% 0 in 0 W/m2
05:01 66 °F 53.1 °F 29.8 in NW 6 mph 12.1 mph 63% 0 in 0 W/m2
05:06 66.2 °F 52.9 °F 29.8 in North 5.4 mph 12.1 mph 62% 0 in 0 W/m2
05:11 66 °F 53.1 °F 29.8 in North 8.3 mph 12.1 mph 63% 0 in 0 W/m2
05:16 65.8 °F 52.9 °F 29.8 in NNW 6.9 mph 13 mph 63% 0 in 0 W/m2
05:21 65.7 °F 53.2 °F 29.8 in NNW 5.4 mph 13 mph 64% 0 in 0 W/m2
05:26 65.3 °F 53.2 °F 29.8 in NNW 5.4 mph 13 mph 65% 0 in 0 W/m2
05:31 64.9 °F 52.9 °F 29.8 in NNW 3.8 mph 9.8 mph 65% 0 in 0 W/m2
05:36 64.8 °F 53.2 °F 29.8 in NNW 3.1 mph 9.2 mph 66% 0 in 0 W/m2
05:41 64.8 °F 53.2 °F 29.8 in North 4.5 mph 7.6 mph 66% 0 in 0 W/m2
05:46 64.6 °F 53.1 °F 29.8 in NNW 2.2 mph 6.9 mph 66% 0 in 1 W/m2
05:51 64.9 °F 52.9 °F 29.8 in NNW 5.4 mph 8.3 mph 65% 0 in 1 W/m2
05:56 65.1 °F 52.2 °F 29.8 in NW 5.4 mph 13 mph 63% 0 in 2 W/m2
06:01 65.3 °F 52 °F 29.8 in NNW 4.5 mph 13 mph 62% 0 in 4 W/m2
06:06 65.7 °F 51.4 °F 29.8 in NNW 6 mph 9.8 mph 60% 0 in 7 W/m2
06:11 65.5 °F 51.3 °F 29.8 in NNW 3.8 mph 9.8 mph 60% 0 in 10 W/m2
06:16 65.5 °F 51.3 °F 29.8 in North 4.5 mph 9.8 mph 60% 0 in 13 W/m2
06:21 65.5 °F 51.6 °F 29.8 in NNE 3.1 mph 9.2 mph 61% 0 in 15 W/m2
06:26 65.5 °F 51.6 °F 29.8 in NNE 4.5 mph 9.2 mph 61% 0 in 18 W/m2
06:31 65.3 °F 52.3 °F 29.8 in NNE 2.2 mph 5.4 mph 63% 0 in 21 W/m2
06:36 64.9 °F 52.5 °F 29.8 in NNE 2.2 mph 5.4 mph 64% 0 in 26 W/m2
06:41 64.9 °F 52.9 °F 29.8 in NE 1.6 mph 3.8 mph 65% 0 in 30 W/m2
06:46 64.8 °F 52.7 °F 29.8 in NE 1.6 mph 3.8 mph 65% 0 in 36 W/m2
06:51 64.8 °F 52.7 °F 29.8 in NE 1.6 mph 3.8 mph 65% 0 in 41 W/m2
06:56 64.9 °F 52.9 °F 29.8 in Calm   3.1 mph 65% 0 in 49 W/m2
07:01 65.1 °F 53.1 °F 29.8 in Calm   3.1 mph 65% 0 in 57 W/m2
07:06 65.5 °F 52.2 °F 29.8 in NNW 3.8 mph 9.2 mph 62% 0 in 65 W/m2
07:11 66.2 °F 51.1 °F 29.8 in NNW 5.4 mph 11.4 mph 58% 0 in 75 W/m2
07:16 66.6 °F 50.9 °F 29.8 in NW 3.1 mph 11.4 mph 57% 0 in 85 W/m2
07:21 66.7 °F 50.5 °F 29.8 in NNW 6.9 mph 11.4 mph 56% 0 in 97 W/m2
07:26 67.3 °F 51.1 °F 29.8 in NNW 4.5 mph 13.6 mph 56% 0 in 108 W/m2
07:31 67.5 °F 51.3 °F 29.8 in NNW 4.5 mph 13.6 mph 56% 0 in 115 W/m2
07:36 67.6 °F 51.4 °F 29.8 in NNW 3.1 mph 9.2 mph 56% 0 in 122 W/m2
07:41 67.8 °F 51.6 °F 29.8 in NNW 3.1 mph 6.9 mph 56% 0 in 127 W/m2
07:46 68 °F 51.3 °F 29.8 in NNW 3.1 mph 6 mph 55% 0 in 135 W/m2
07:51 68.2 °F 52.9 °F 29.8 in NNW 2.2 mph 6 mph 58% 0 in 146 W/m2
07:56 68.2 °F 53.2 °F 29.8 in North 2.2 mph 6 mph 59% 0 in 158 W/m2
08:12 68.7 °F 51.4 °F 29.8 in NW 7.6 mph 13.6 mph 54% 0 in 203 W/m2
08:17 69.1 °F 51.8 °F 29.8 in NW 4.5 mph 11.4 mph 54% 0 in 213 W/m2
08:22 69.6 °F 52.3 °F 29.8 in NNW 5.4 mph 11.4 mph 54% 0 in 460 W/m2
08:27 71.4 °F 52.9 °F 29.8 in NNW 6 mph 14.5 mph 52% 0 in 474 W/m2
08:32 72.3 °F 52.2 °F 29.8 in NW 7.6 mph 14.5 mph 49% 0 in 491 W/m2
08:37 72.3 °F 52.7 °F 29.8 in NNW 6 mph 13 mph 50% 0 in 378 W/m2
08:42 72.1 °F 50.7 °F 29.8 in NNW 4.5 mph 11.4 mph 47% 0 in 427 W/m2
08:47 72.1 °F 51.4 °F 29.9 in NW 7.6 mph 11.4 mph 48% 0 in 359 W/m2
08:52 71.8 °F 51.6 °F 29.9 in NNW 7.6 mph 13 mph 49% 0 in 476 W/m2
08:57 72.5 °F 52.3 °F 29.9 in NNW 9.2 mph 13 mph 49% 0 in 566 W/m2
09:02 73.2 °F 52.3 °F 29.9 in NNW 6 mph 13 mph 48% 0 in 616 W/m2
09:07 73.9 °F 53.1 °F 29.9 in NNW 8.3 mph 13 mph 48% 0 in 581 W/m2
09:12 73.4 °F 52.5 °F 29.9 in NW 9.8 mph 16.8 mph 48% 0 in 532 W/m2
09:17 72.9 °F 52.2 °F 29.9 in NW 15.9 mph 22.1 mph 48% 0 in 356 W/m2
09:22 71.8 °F 52.2 °F 29.9 in NW 12.1 mph 23.5 mph 50% 0 in 408 W/m2
09:27 71.6 °F 50.9 °F 29.9 in NW 9.8 mph 23.5 mph 48% 0 in 476 W/m2
09:32 72 °F 50.2 °F 29.9 in NW 12.1 mph 22.8 mph 46% 0 in 470 W/m2
09:37 71.8 °F 49.8 °F 29.9 in NW 10.7 mph 24.4 mph 46% 0 in 467 W/m2
09:42 72.3 °F 51.1 °F 29.9 in NW 7.6 mph 24.4 mph 47% 0 in 498 W/m2
09:47 72.9 °F 51.4 °F 29.9 in NNW 9.2 mph 18.3 mph 47% 0 in 448 W/m2
09:52 72 °F 50.2 °F 29.9 in NW 18.3 mph 25.1 mph 46% 0 in 354 W/m2
09:57 71.8 °F 50.5 °F 29.9 in NW 12.1 mph 25.1 mph 47% 0 in 367 W/m2
10:02 72 °F 50.2 °F 29.9 in NW 8.3 mph 25.1 mph 46% 0 in 474 W/m2
10:07 72.7 °F 50.7 °F 29.9 in NNW 10.7 mph 18.3 mph 46% 0 in 629 W/m2
10:12 73.8 °F 52.3 °F 29.9 in NNW 11.4 mph 16.8 mph 47% 0 in 518 W/m2
10:17 73.2 °F 51.3 °F 29.9 in NW 11.4 mph 24.4 mph 46% 0 in 623 W/m2
10:22 73.6 °F 52.2 °F 29.9 in WNW 13.6 mph 24.4 mph 47% 0 in 790 W/m2
10:27 73.4 °F 51.4 °F 29.9 in NW 10.7 mph 21.3 mph 46% 0 in 591 W/m2
10:32 74.3 °F 51.6 °F 29.9 in NW 15.9 mph 26.6 mph 45% 0 in 946 W/m2
10:37 74.7 °F 52.5 °F 29.8 in NW 10.7 mph 26.6 mph 46% 0 in 1035 W/m2
10:42 76.1 °F 52.5 °F 29.8 in NW 12.1 mph 25.1 mph 44% 0 in 1088 W/m2
10:47 75.6 °F 52.2 °F 29.8 in NNW 10.7 mph 22.1 mph 44% 0 in 899 W/m2
10:52 75.4 °F 52 °F 29.8 in NNW 9.2 mph 22.1 mph 44% 0 in 615 W/m2
10:57 74.3 °F 51.6 °F 29.8 in NW 8.3 mph 19.7 mph 45% 0 in 601 W/m2
11:02 75 °F 52.3 °F 29.8 in WNW 10.7 mph 19.7 mph 45% 0 in 506 W/m2
11:07 74.7 °F 52.5 °F 29.8 in NNW 8.3 mph 18.3 mph 46% 0 in 380 W/m2
11:12 73.8 °F 51.6 °F 29.8 in NNW 4.5 mph 17.4 mph 46% 0 in 332 W/m2
11:17 73.9 °F 52 °F 29.8 in NW 7.6 mph 17.4 mph 46% 0 in 296 W/m2
11:22 73.4 °F 52 °F 29.8 in NW 9.8 mph 13.6 mph 47% 0 in 269 W/m2
11:27 73.6 °F 52.2 °F 29.8 in NNW 7.6 mph 15.2 mph 47% 0 in 254 W/m2
11:32 73.2 °F 51.3 °F 29.8 in NNW 9.2 mph 17.4 mph 46% 0 in 244 W/m2
11:37 73 °F 51.6 °F 29.8 in NNW 6.9 mph 17.4 mph 47% 0 in 241 W/m2
11:42 73 °F 51.6 °F 29.8 in NNW 6 mph 12.1 mph 47% 0 in 243 W/m2
11:47 72.9 °F 52.2 °F 29.8 in North 6.9 mph 13.6 mph 48% 0 in 241 W/m2
11:52 72.7 °F 51.3 °F 29.8 in North 9.2 mph 14.5 mph 47% 0 in 227 W/m2
11:57 72.7 °F 52 °F 29.8 in North 6.9 mph 14.5 mph 48% 0 in 217 W/m2
12:02 72.9 °F 52.2 °F 29.8 in NNW 8.3 mph 14.5 mph 48% 0 in 218 W/m2
12:07 72.3 °F 51.6 °F 29.8 in NNW 9.2 mph 14.5 mph 48% 0 in 228 W/m2
12:12 72.7 °F 52.3 °F 29.8 in NNW 8.3 mph 15.2 mph 49% 0 in 242 W/m2
12:17 72.9 °F 52.5 °F 29.8 in North 7.6 mph 15.2 mph 49% 0 in 257 W/m2
12:22 72.9 °F 52.5 °F 29.8 in North 7.6 mph 14.5 mph 49% 0 in 267 W/m2
12:27 72.9 °F 52.5 °F 29.8 in NNW 12.1 mph 14.5 mph 49% 0 in 265 W/m2
12:32 72.9 °F 52.5 °F 29.8 in NNW 7.6 mph 14.5 mph 49% 0 in 258 W/m2
12:37 73 °F 53.2 °F 29.8 in NNW 6 mph 14.5 mph 50% 0 in 258 W/m2
12:42 73.4 °F 53.1 °F 29.8 in NNW 6 mph 13.6 mph 49% 0 in 261 W/m2
12:47 73.4 °F 53.1 °F 29.8 in NNW 9.8 mph 15.2 mph 49% 0 in 267 W/m2
12:52 73.6 °F 53.2 °F 29.8 in NW 6 mph 15.2 mph 49% 0 in 275 W/m2
12:57 73.4 °F 53.8 °F 29.8 in NW 8.3 mph 19 mph 50% 0 in 283 W/m2
13:02 73.4 °F 54.1 °F 29.8 in NW 15.2 mph 19 mph 51% 0 in 293 W/m2
13:07 73.2 °F 54.7 °F 29.8 in North 11.4 mph 22.1 mph 52% 0 in 312 W/m2
13:12 73.2 °F 54.7 °F 29.8 in NNW 13 mph 23.5 mph 52% 0 in 317 W/m2
13:18 73.4 °F 54.7 °F 29.8 in NW 7.6 mph 23.5 mph 52% 0 in 317 W/m2
13:23 73.8 °F 55.6 °F 29.8 in NW 9.2 mph 18.3 mph 53% 0 in 310 W/m2
13:28 73.8 °F 55.6 °F 29.8 in NW 14.5 mph 20.6 mph 53% 0 in 305 W/m2
13:33 73.6 °F 55.4 °F 29.8 in NNW 7.6 mph 20.6 mph 53% 0 in 301 W/m2
13:38 73.6 °F 55.4 °F 29.8 in NNW 6 mph 20.6 mph 53% 0 in 301 W/m2
13:43 73.8 °F 56.1 °F 29.8 in NNW 9.8 mph 22.1 mph 54% 0 in 293 W/m2
13:48 73.8 °F 56.1 °F 29.8 in NNW 9.8 mph 22.1 mph 54% 0 in 288 W/m2
13:53 73.8 °F 55 °F 29.8 in NNW 13.6 mph 23.5 mph 52% 0 in 279 W/m2
13:58 73.8 °F 55.6 °F 29.8 in NNW 7.6 mph 25.1 mph 53% 0 in 292 W/m2
14:03 74.1 °F 56.5 °F 29.8 in NNW 8.3 mph 25.1 mph 54% 0 in 319 W/m2
14:08 74.3 °F 56.1 °F 29.8 in NNW 13 mph 22.8 mph 53% 0 in 352 W/m2
14:13 73.9 °F 55.8 °F 29.8 in NNW 13.6 mph 23.5 mph 53% 0 in 345 W/m2
14:18 74.1 °F 55.9 °F 29.8 in NW 7.6 mph 23.5 mph 53% 0 in 361 W/m2
14:23 73.9 °F 55.2 °F 29.8 in NNW 11.4 mph 21.3 mph 52% 0 in 323 W/m2
14:28 73.8 °F 55.6 °F 29.8 in NNW 16.8 mph 22.1 mph 53% 0 in 309 W/m2
14:33 73.9 °F 56.8 °F 29.8 in NNW 10.7 mph 22.1 mph 55% 0 in 267 W/m2
14:38 74.1 °F 57 °F 29.8 in NNW 15.2 mph 22.1 mph 55% 0 in 232 W/m2
14:43 73.6 °F 56.5 °F 29.8 in NNW 13 mph 22.1 mph 55% 0 in 217 W/m2
14:48 73.2 °F 55.6 °F 29.8 in NNW 9.8 mph 22.1 mph 54% 0 in 212 W/m2
14:53 73 °F 56.5 °F 29.8 in NNW 10.7 mph 22.1 mph 56% 0 in 223 W/m2
14:58 73 °F 56.5 °F 29.8 in NW 11.4 mph 20.6 mph 56% 0 in 235 W/m2
15:03 73.4 °F 56.8 °F 29.8 in NNW 10.7 mph 20.6 mph 56% 0 in 202 W/m2
15:08 73.4 °F 56.8 °F 29.8 in NW 9.8 mph 15.2 mph 56% 0 in 222 W/m2
15:13 73.2 °F 56.1 °F 29.8 in NW 12.1 mph 16.8 mph 55% 0 in 224 W/m2
15:18 73.2 °F 56.7 °F 29.8 in NW 10.7 mph 19 mph 56% 0 in 236 W/m2
15:23 72.9 °F 55.8 °F 29.8 in NNW 12.1 mph 19 mph 55% 0 in 221 W/m2
15:28 72.3 °F 56.3 °F 29.8 in North 13.6 mph 23.5 mph 57% 0 in 192 W/m2
15:33 71.8 °F 56.1 °F 29.8 in North 9.8 mph 23.5 mph 58% 0 in 193 W/m2
15:38 71.6 °F 56.5 °F 29.8 in North 13 mph 23.5 mph 59% 0 in 207 W/m2
15:43 71.4 °F 57.4 °F 29.8 in North 8.3 mph 20.6 mph 61% 0 in 252 W/m2
15:48 71.6 °F 57 °F 29.8 in NNW 15.2 mph 19.7 mph 60% 0 in 339 W/m2
15:53 71.6 °F 57 °F 29.8 in NW 14.5 mph 20.6 mph 60% 0 in 316 W/m2
15:58 72 °F 57.7 °F 29.8 in NW 11.4 mph 20.6 mph 61% 0 in 278 W/m2
16:03 71.8 °F 57.6 °F 29.8 in NNW 7.6 mph 19 mph 61% 0 in 266 W/m2
16:08 72 °F 57.7 °F 29.8 in NNW 9.2 mph 20.6 mph 61% 0 in 270 W/m2
16:13 72.1 °F 57.9 °F 29.8 in NNW 10.7 mph 20.6 mph 61% 0 in 291 W/m2
16:18 72.3 °F 57.7 °F 29.8 in NNW 9.8 mph 17.4 mph 60% 0 in 496 W/m2
16:23 73.8 °F 58.6 °F 29.8 in NNW 13 mph 17.4 mph 59% 0 in 416 W/m2
16:28 73.6 °F 57.4 °F 29.8 in NNW 9.2 mph 17.4 mph 57% 0 in 358 W/m2
16:33 73.4 °F 57.7 °F 29.8 in NNW 8.3 mph 17.4 mph 58% 0 in 302 W/m2
16:38 73.4 °F 57.7 °F 29.8 in North 8.3 mph 18.3 mph 58% 0 in 700 W/m2
16:57 77.5 °F 57.9 °F 29.8 in North 11.4 mph 18.3 mph 51% 0 in 683 W/m2
17:02 77.2 °F 58.3 °F 29.7 in North 13 mph 18.3 mph 52% 0 in 638 W/m2
17:07 77.9 °F 59.4 °F 29.7 in North 6.9 mph 16.8 mph 53% 0 in 603 W/m2
17:12 77 °F 58.1 °F 29.7 in North 7.6 mph 19 mph 52% 0 in 284 W/m2
17:17 75.7 °F 57.9 °F 29.7 in NNW 9.2 mph 19 mph 54% 0 in 216 W/m2
17:22 74.7 °F 57.9 °F 29.7 in NNW 9.2 mph 20.6 mph 56% 0 in 177 W/m2
17:27 74.3 °F 57.6 °F 29.7 in North 13.6 mph 20.6 mph 56% 0 in 232 W/m2
17:32 74.7 °F 57.9 °F 29.7 in North 7.6 mph 18.3 mph 56% 0 in 507 W/m2
17:37 75.9 °F 58.1 °F 29.7 in NNW 9.2 mph 16.8 mph 54% 0 in 332 W/m2
17:42 75.9 °F 58.1 °F 29.7 in NNW 8.3 mph 15.9 mph 54% 0 in 303 W/m2
17:47 75.6 °F 57.7 °F 29.7 in NNW 6.9 mph 15.9 mph 54% 0 in 213 W/m2
17:52 74.8 °F 58.1 °F 29.7 in NNW 8.3 mph 14.5 mph 56% 0 in 173 W/m2
17:57 74.3 °F 57.6 °F 29.7 in NNW 9.2 mph 19 mph 56% 0 in 142 W/m2
18:02 74.1 °F 57.6 °F 29.7 in NNW 13 mph 19 mph 56% 0 in 128 W/m2
18:07 73.6 °F 57.4 °F 29.7 in NNW 9.8 mph 18.3 mph 57% 0 in 126 W/m2
18:12 73.4 °F 57.4 °F 29.7 in NNW 10.7 mph 18.3 mph 57% 0 in 122 W/m2
18:17 73.2 °F 57 °F 29.7 in NNW 9.2 mph 15.9 mph 57% 0 in 118 W/m2
18:22 73 °F 56.8 °F 29.7 in NNW 8.3 mph 15.2 mph 57% 0 in 113 W/m2
18:27 72.9 °F 56.8 °F 29.7 in North 11.4 mph 15.2 mph 57% 0 in 132 W/m2
18:32 73.4 °F 56.8 °F 29.7 in NNW 9.8 mph 15.2 mph 56% 0 in 292 W/m2
18:37 73.6 °F 56.8 °F 29.7 in NNW 9.8 mph 15.9 mph 56% 0 in 164 W/m2
18:42 73.2 °F 57 °F 29.7 in NNW 9.8 mph 16.8 mph 57% 0 in 229 W/m2
18:47 73.8 °F 57 °F 29.7 in North 9.8 mph 16.8 mph 56% 0 in 188 W/m2
18:52 73.6 °F 56.5 °F 29.7 in North 8.3 mph 15.9 mph 55% 0 in 138 W/m2
18:57 74.1 °F 57 °F 29.7 in NNW 10.7 mph 16.8 mph 55% 0 in 278 W/m2
19:02 74.5 °F 56.8 °F 29.7 in NNW 11.4 mph 18.3 mph 54% 0 in 228 W/m2
19:07 74.1 °F 57 °F 29.7 in North 10.7 mph 18.3 mph 55% 0 in 204 W/m2
19:12 74.1 °F 57 °F 29.7 in NNW 5.4 mph 18.3 mph 55% 0 in 144 W/m2
19:17 74.5 °F 56.8 °F 29.7 in NW 9.8 mph 18.3 mph 54% 0 in 241 W/m2
19:22 74.7 °F 56.5 °F 29.7 in NNW 9.2 mph 20.6 mph 53% 0 in 223 W/m2
19:27 74.5 °F 56.3 °F 29.7 in NNW 8.3 mph 20.6 mph 53% 0 in 212 W/m2
19:32 74.7 °F 56.5 °F 29.7 in NNW 11.4 mph 20.6 mph 53% 0 in 198 W/m2
19:37 74.5 °F 56.3 °F 29.7 in NNW 14.5 mph 23.5 mph 53% 0 in 175 W/m2
19:42 73.6 °F 56.5 °F 29.7 in NNW 9.2 mph 23.5 mph 55% 0 in 86 W/m2
19:47 72.7 °F 56.1 °F 29.7 in NNW 9.8 mph 18.3 mph 56% 0 in 90 W/m2
19:52 72.5 °F 55.9 °F 29.7 in NNW 11.4 mph 18.3 mph 56% 0 in 79 W/m2
19:57 72.3 °F 55.8 °F 29.7 in NW 12.1 mph 18.3 mph 56% 0 in 101 W/m2
20:02 72.3 °F 55.8 °F 29.7 in NW 14.5 mph 20.6 mph 56% 0 in 52 W/m2
20:07 72 °F 55.4 °F 29.7 in NW 9.2 mph 20.6 mph 56% 0 in 44 W/m2
20:12 71.8 °F 55.8 °F 29.7 in NNW 12.1 mph 19.7 mph 57% 0 in 36 W/m2
20:17 71.6 °F 55.6 °F 29.7 in NNW 9.8 mph 22.1 mph 57% 0 in 29 W/m2
20:22 71.4 °F 56.8 °F 29.7 in NNW 9.2 mph 22.1 mph 60% 0 in 22 W/m2
20:27 71.2 °F 56.7 °F 29.7 in NNW 9.2 mph 14.5 mph 60% 0 in 16 W/m2
20:32 71.1 °F 57 °F 29.7 in NNW 7.6 mph 14.5 mph 61% 0 in 10 W/m2
20:37 70.7 °F 57 °F 29.7 in NNW 9.2 mph 18.3 mph 62% 0 in 5 W/m2
20:42 70.5 °F 56.8 °F 29.7 in North 13.6 mph 18.3 mph 62% 0 in 2 W/m2
20:47 70.9 °F 56.8 °F 29.7 in NNW 10.7 mph 21.3 mph 61% 0 in 0 W/m2
20:52 70.5 °F 56.8 °F 29.7 in NNW 11.4 mph 21.3 mph 62% 0 in 0 W/m2
20:57 70.3 °F 56.7 °F 29.7 in NNW 8.3 mph 15.9 mph 62% 0 in 0 W/m2
21:02 70.2 °F 57 °F 29.7 in North 6.9 mph 15.9 mph 63% 0 in 0 W/m2
21:07 70.3 °F 56.7 °F 29.7 in North 9.8 mph 16.8 mph 62% 0 in 0 W/m2
21:12 70.3 °F 57.2 °F 29.7 in NNW 6.9 mph 16.8 mph 63% 0 in 0 W/m2
21:17 70.5 °F 56.8 °F 29.7 in NNW 11.4 mph 19.7 mph 62% 0 in 0 W/m2
21:22 70.7 °F 57 °F 29.7 in NNW 13 mph 20.6 mph 62% 0 in 0 W/m2
21:27 70.7 °F 57 °F 29.7 in NNW 7.6 mph 20.6 mph 62% 0 in 0 W/m2
21:32 70.3 °F 56.7 °F 29.7 in NNW 6.9 mph 19 mph 62% 0 in 0 W/m2
21:37 70.2 °F 56.7 °F 29.7 in NNW 10.7 mph 15.9 mph 62% 0 in 0 W/m2
21:42 70.3 °F 56.7 °F 29.7 in NNW 9.2 mph 15.9 mph 62% 0 in 0 W/m2
21:47 70.5 °F 56.8 °F 29.7 in NNW 6.9 mph 15.9 mph 62% 0 in 0 W/m2
21:52 70.3 °F 56.7 °F 29.7 in North 6 mph 15.2 mph 62% 0 in 0 W/m2
21:57 70.2 °F 56.7 °F 29.7 in North 6 mph 12.1 mph 62% 0 in 0 W/m2
22:02 70 °F 56.5 °F 29.7 in North 6 mph 9.8 mph 62% 0 in 0 W/m2
22:07 69.8 °F 56.7 °F 29.7 in North 6 mph 9.8 mph 63% 0 in 0 W/m2
22:12 69.8 °F 56.7 °F 29.7 in North 5.4 mph 9.8 mph 63% 0 in 0 W/m2
22:17 69.6 °F 56.8 °F 29.7 in North 3.8 mph 11.4 mph 64% 0 in 0 W/m2
22:22 69.6 °F 56.8 °F 29.7 in North 7.6 mph 11.4 mph 64% 0 in 0 W/m2
22:27 69.8 °F 56.7 °F 29.7 in NNW 6 mph 11.4 mph 63% 0 in 0 W/m2
22:32 70 °F 56.8 °F 29.7 in NNW 4.5 mph 13 mph 63% 0 in 0 W/m2
22:37 69.8 °F 56.7 °F 29.7 in NNW 7.6 mph 13 mph 63% 0 in 0 W/m2
22:42 69.8 °F 56.7 °F 29.7 in NNW 8.3 mph 11.4 mph 63% 0 in 0 W/m2
22:47 70 °F 56.8 °F 29.7 in NNW 6.9 mph 11.4 mph 63% 0 in 0 W/m2
22:52 70.2 °F 57 °F 29.7 in NNW 9.2 mph 13 mph 63% 0 in 0 W/m2
22:57 70.2 °F 57 °F 29.7 in NNW 8.3 mph 14.5 mph 63% 0 in 0 W/m2
23:02 70 °F 56.8 °F 29.7 in NNW 9.2 mph 14.5 mph 63% 0 in 0 W/m2
23:07 69.8 °F 56.7 °F 29.7 in NNW 7.6 mph 13.6 mph 63% 0 in 0 W/m2
23:12 69.6 °F 57.4 °F 29.7 in NNW 4.5 mph 14.5 mph 65% 0 in 0 W/m2
23:18 69.6 °F 57.4 °F 29.7 in NNW 5.4 mph 10.7 mph 65% 0 in 0 W/m2
23:23 69.4 °F 57.2 °F 29.7 in NNW 4.5 mph 10.7 mph 65% 0 in 0 W/m2
23:28 69.4 °F 57.2 °F 29.7 in NNW 4.5 mph 9.2 mph 65% 0 in 0 W/m2
23:33 69.4 °F 57.2 °F 29.7 in North 4.5 mph 8.3 mph 65% 0 in 0 W/m2
23:38 69.3 °F 57 °F 29.7 in North 3.8 mph 8.3 mph 65% 0 in 0 W/m2
23:43 69.3 °F 57 °F 29.7 in NNW 2.2 mph 8.3 mph 65% 0 in 0 W/m2
23:48 69.4 °F 57.2 °F 29.7 in North 5.4 mph 11.4 mph 65% 0 in 0 W/m2
23:53 69.6 °F 56.8 °F 29.7 in North 4.5 mph 11.4 mph 64% 0 in 0 W/m2
23:58 69.6 °F 56.8 °F 29.7 in North 6.9 mph 14.5 mph 64% 0 in 0 W/m2
Northern Hawkes Bay. New Zealand Historic Data
Compliments of Weather Underground - 2 mb